This demonstration page uses our WeatherBlox Daily Observations layout. Learn more.

Left ArrowRight Arrow

Hourly Observations for May 11, 2016

Temp ( °F °C ) Dew Point ( °F °C ) Humidity (%) Winds ( mph kmh ) Pressure ( in mb ) Visibility ( mi km ) Precip ( " mm )
12:52 am 00:52 Mostly Clear 67 19.4 59 15 76 76 SE 8 13 29.89 1012 10 16 0.00 0.00
1:52 am 01:52 Clear 68 20 62 16.7 81 81 SSE 9 15 29.88 1012 10 16 0.00 0.00
2:52 am 02:52 Clear 70 21.1 64 17.8 82 82 SSE 10 17 29.88 1012 10 16 0.00 0.00
3:52 am 03:52 Partly Cloudy 70 21.1 65 18.3 84 84 SSE 9 15 29.88 1012 8 13 0.00 0.00
4:52 am 04:52 Clear 69 20.6 65 18.3 87 87 SSE 10 17 29.87 1012 7 11 0.00 0.00
5:52 am 05:52 Mostly Cloudy with Mist and Fog 70 21.1 66 18.9 87 87 S 7 11 29.90 1013 6 10 0.00 0.00
6:13 am 06:13 Cloudy 70 21.1 64 17.8 82 82 undefined N/A 29.94 1014 9 14 0.00 0.00
6:22 am 06:22 Cloudy 70 21 63 17 78 78 WNW 5 7 29.94 1014 10 16 0.00 0.00
6:48 am 06:48 Mostly Cloudy with Light Rain 68 20 63 17 83 83 Calm 29.94 1014 9 14 0.00 0.00
6:52 am 06:52 Mostly Cloudy with Light Rain 68 20 63 17.2 84 84 S 3 6 29.93 1014 9 14 0.00 0.03
7:52 am 07:52 Sunny 71 21.7 64 17.8 79 79 SSE 9 15 29.91 1013 9 14 0.00 0.03
8:52 am 08:52 Sunny 76 24.4 67 19.4 74 74 S 15 24 29.91 1013 7 11 0.00 0.00
9:52 am 09:52 Partly Cloudy 78 25.6 66 18.9 67 67 SSW 10 17 29.95 1014 9 14 0.00 0.00
10:52 am 10:52 Mostly Sunny 80 26.7 65 18.3 60 60 SSW 13 20 29.93 1013 10 16 0.00 0.00
11:52 am 11:52 Sunny 83 28.3 63 17.2 51 51 SW 17 28 29.92 1013 10 16 0.00 0.00
12:52 pm 12:52 Sunny 84 28.9 60 15.6 44 44 SSW 16 26 29.91 1013 10 16 0.00 0.00
1:52 pm 13:52 Sunny 85 29.4 59 15 42 42 WSW 20 31 29.90 1013 10 16 0.00 0.00
2:52 pm 14:52 Mostly Sunny 85 29.4 59 15 42 42 SW 24 39 29.89 1012 10 16 0.00 0.00
3:52 pm 15:52 Sunny 85 29.4 59 15 42 42 SW 18 30 29.88 1012 10 16 0.00 0.00
4:52 pm 16:52 Sunny 84 28.9 59 15 43 43 SW 15 24 29.88 1012 10 16 0.00 0.00
5:52 pm 17:52 Sunny 84 28.9 60 15.6 44 44 WSW 14 22 29.89 1012 10 16 0.00 0.00
6:52 pm 18:52 Sunny 81 27.2 60 15.6 49 49 W 10 17 29.91 1013 10 16 0.00 0.00
7:52 pm 19:52 Mostly Sunny 77 25 61 16.1 58 58 W 7 11 29.92 1013 10 16 0.00 0.00
8:52 pm 20:52 Cloudy 75 23.9 62 16.7 64 64 WSW 6 9 29.93 1014 10 16 0.00 0.00
9:52 pm 21:52 Cloudy 76 24.4 61 16.1 60 60 NW 12 19 29.96 1015 10 16 0.00 0.00
10:52 pm 22:52 Cloudy 71 21.7 64 17.8 79 79 NW 14 22 29.99 1016 10 16 0.00 0.00
11:52 pm 23:52 Mostly Cloudy 69 20.6 63 17.2 81 81 NNW 13 20 29.99 1016 10 16 0.00 0.00

Powered by AerisWeather